| time (UTC) | temp F | wind direction | speed MPH | gust MPH | rain 1hr in | rain 24hr in | rain mn in | humidity % | barometer mb |
| 20260904054537 | 49 | 180 | 2.0 | 3.0 | 0.00 | 0.00 | 0.00 | 94 | 1012.3 |
| 20260904053037 | 50 | 180 | 0.0 | 2.0 | 0.00 | 0.00 | 0.00 | 93 | 1012.3 |
| 20260904051642 | 50 | 173 | 2.0 | 3.0 | 0.00 | 0.00 | 0.00 | 93 | 1012.4 |
| 20260904044532 | 51 | 151 | 0.0 | 4.0 | 0.00 | 0.00 | 0.00 | 94 | 1012.5 |
| 20260904043032 | 51 | 180 | 1.0 | 3.0 | 0.00 | 0.00 | 0.00 | 94 | 1012.5 |
| 20260904041536 | 51 | 180 | 1.0 | 3.0 | 0.00 | 0.00 | 0.00 | 93 | 1012.6 |
| 20260904040035 | 51 | 161 | 0.0 | 2.0 | 0.00 | 0.00 | 0.00 | 92 | 1012.5 |
| 20260904034609 | 51 | 157 | 1.0 | 2.0 | 0.00 | 0.00 | 0.00 | 91 | 1012.5 |
| 20260904033143 | 51 | 166 | 1.0 | 3.0 | 0.00 | 0.00 | 0.00 | 90 | 1012.4 |
| 20260904031535 | 52 | 135 | 0.0 | 2.0 | 0.00 | 0.00 | 0.00 | 88 | 1012.2 |
| 20260904030035 | 53 | 128 | 1.0 | 4.0 | 0.00 | 0.00 | 0.00 | 85 | 1012.2 |
| 20260904024536 | 54 | 78 | 1.0 | 5.0 | 0.00 | 0.01 | 0.00 | 83 | 1012.0 |
| 20260904023035 | 55 | 75 | 1.0 | 5.0 | 0.00 | 0.04 | 0.00 | 81 | 1012.1 |
| 20260904021534 | 55 | 56 | 3.0 | 7.0 | 0.00 | 0.04 | 0.00 | 80 | 1011.9 |
| 20260904020109 | 55 | 50 | 3.0 | 8.0 | 0.00 | 0.12 | 0.00 | 79 | 1011.9 |
| 20260904014534 | 56 | 41 | 3.0 | 8.0 | 0.00 | 0.18 | 0.00 | 79 | 1011.9 |
| 20260904013036 | 56 | 44 | 2.0 | 7.0 | 0.00 | 0.18 | 0.00 | 80 | 1011.9 |
| 20260904011536 | 57 | 28 | 1.0 | 4.0 | 0.00 | 0.18 | 0.00 | 77 | 1011.8 |
| 20260904010036 | 59 | 24 | 3.0 | 6.0 | 0.00 | 0.18 | 0.00 | 74 | 1011.8 |
| 20260904004534 | 59 | 15 | 3.0 | 5.0 | 0.00 | 0.21 | 0.00 | 74 | 1011.8 |
| 20260904003036 | 60 | 42 | 3.0 | 7.0 | 0.00 | 0.22 | 0.00 | 73 | 1011.8 |
| 20260904001532 | 60 | 32 | 3.0 | 10.0 | 0.00 | 0.22 | 0.00 | 75 | 1011.8 |
| 20260904000037 | 58 | 50 | 4.0 | 11.0 | 0.00 | 2.80 | 0.00 | 79 | 1011.8 |
| 20260903234535 | 56 | 94 | 1.0 | 7.0 | 0.00 | 2.80 | 0.00 | 81 | 1012.0 |
| 20260903233033 | 57 | 52 | 3.0 | 7.0 | 0.00 | 2.81 | 0.00 | 77 | 1012.0 |
| 20260903224535 | 59 | 32 | 5.0 | 9.0 | 0.00 | 2.83 | 0.00 | 70 | 1012.0 |
| 20260903223045 | 61 | 337 | 5.0 | 11.0 | 0.00 | 2.83 | 0.00 | 66 | 1011.9 |
| 20260903220032 | 63 | 352 | 5.0 | 13.0 | 0.00 | 2.83 | 0.00 | 62 | 1011.7 |
| 20260903213036 | 63 | 40 | 2.0 | 6.0 | 0.00 | 2.86 | 0.00 | 62 | 1011.7 |
| 20260903211537 | 63 | 14 | 2.0 | 6.0 | 0.00 | 2.89 | 0.00 | 61 | 1011.8 |
| 20260903210035 | 63 | 5 | 2.0 | 8.0 | 0.00 | 2.89 | 0.00 | 62 | 1011.9 |
| 20260903204532 | 62 | 7 | 2.0 | 7.0 | 0.00 | 2.92 | 0.00 | 66 | 1011.9 |
| 20260903203034 | 61 | 353 | 3.0 | 9.0 | 0.00 | 2.92 | 0.00 | 69 | 1012.0 |
| 20260903201610 | 63 | 23 | 3.0 | 8.0 | 0.00 | 2.95 | 0.00 | 68 | 1012.2 |
| 20260903193153 | 62 | 16 | 3.0 | 8.0 | 0.00 | 2.95 | 0.00 | 71 | 1012.6 |
| 20260903190035 | 57 | 238 | 1.0 | 5.0 | 0.00 | 2.96 | 0.00 | 81 | 1013.0 |
| 20260903184534 | 56 | 318 | 2.0 | 6.0 | 0.00 | 2.96 | 0.00 | 83 | 1013.1 |
| 20260903174531 | 56 | 328 | 2.0 | 6.0 | 0.00 | 2.96 | 0.00 | 81 | 1013.1 |
| 20260903173035 | 56 | 52 | 1.0 | 6.0 | 0.00 | 2.96 | 0.00 | 87 | 1013.1 |
| 20260903171610 | 52 | 92 | 0.0 | 2.0 | 0.00 | 2.96 | 0.00 | 93 | 1013.1 |
| 20260903170036 | 50 | 326 | 2.0 | 5.0 | 0.00 | 2.96 | 0.00 | 94 | 1013.2 |
| 20260903161532 | 50 | 105 | 1.0 | 4.0 | 0.00 | 2.96 | 0.00 | 95 | 1013.2 |
| 20260903160043 | 50 | 313 | 0.0 | 3.0 | 0.00 | 2.96 | 0.00 | 96 | 1013.1 |
| 20260903154530 | 49 | 284 | 1.0 | 5.0 | 0.00 | 2.96 | 0.00 | 97 | 1013.1 |
| 20260903153110 | 49 | 16 | 1.0 | 7.0 | 0.00 | 2.96 | 0.00 | 97 | 1013.1 |
| 20260903151534 | 49 | 87 | 1.0 | 5.0 | 0.00 | 2.96 | 0.00 | 98 | 1013.2 |
| 20260903150035 | 49 | 83 | 0.0 | 4.0 | 0.00 | 2.96 | 0.00 | 98 | 1013.0 |
| 20260903144536 | 48 | 90 | 0.0 | 0.0 | 0.00 | 2.96 | 0.00 | 98 | 1012.9 |
| 20260903143033 | 47 | 120 | 0.0 | 2.0 | 0.00 | 2.96 | 0.00 | 98 | 1012.9 |
| 20260903141533 | 46 | 197 | 2.0 | 4.0 | 0.00 | 2.96 | 0.00 | 98 | 1012.7 |
| 20260903134535 | 46 | 177 | 3.0 | 4.0 | 0.00 | 2.96 | 0.00 | 98 | 1012.5 |
| 20260903133036 | 46 | 111 | 0.0 | 5.0 | 0.00 | 2.96 | 0.00 | 98 | 1012.5 |
| 20260903131610 | 46 | 307 | 1.0 | 5.0 | 0.00 | 2.96 | 0.00 | 98 | 1012.3 |
| 20260903130035 | 46 | 180 | 2.0 | 4.0 | 0.00 | 2.96 | 0.00 | 98 | 1012.2 |
| 20260903123037 | 45 | 180 | 0.0 | 2.0 | 0.00 | 2.96 | 0.00 | 97 | 1012.3 |
| 20260903121535 | 46 | 180 | 1.0 | 4.0 | 0.00 | 2.96 | 0.00 | 97 | 1012.3 |
| 20260903120109 | 47 | 175 | 2.0 | 4.0 | 0.00 | 2.96 | 0.00 | 97 | 1012.3 |
| 20260903111536 | 45 | 169 | 1.0 | 4.0 | 0.00 | 2.96 | 0.00 | 94 | 1012.2 |
| 20260903110035 | 45 | 180 | 2.0 | 4.0 | 0.00 | 2.96 | 0.00 | 94 | 1012.1 |
| 20260903103032 | 47 | 103 | 2.0 | 5.0 | 0.00 | 2.96 | 0.00 | 91 | 1011.9 |
| 20260903101535 | 48 | 186 | 2.0 | 4.0 | 0.00 | 2.96 | 0.00 | 90 | 1011.8 |
| 20260903100036 | 49 | 188 | 3.0 | 5.0 | 0.00 | 2.96 | 0.00 | 91 | 1011.9 |
| 20260903094532 | 49 | 181 | 3.0 | 4.0 | 0.00 | 2.96 | 0.00 | 90 | 1012.0 |
| 20260903093031 | 50 | 183 | 2.0 | 4.0 | 0.00 | 2.96 | 0.00 | 89 | 1012.0 |
| 20260903090035 | 50 | 187 | 4.0 | 7.0 | 0.00 | 2.96 | 0.00 | 86 | 1012.0 |
| 20260903084534 | 51 | 184 | 4.0 | 7.0 | 0.00 | 2.96 | 0.00 | 86 | 1012.1 |
| 20260903083036 | 50 | 218 | 3.0 | 5.0 | 0.00 | 2.96 | 0.00 | 87 | 1012.0 |
| 20260903081535 | 50 | 211 | 3.0 | 6.0 | 0.00 | 2.96 | 0.00 | 88 | 1011.8 |
| 20260903080035 | 50 | 197 | 3.0 | 6.0 | 0.00 | 2.96 | 0.00 | 89 | 1011.8 |
| 20260903074536 | 49 | 199 | 3.0 | 5.0 | 0.00 | 2.96 | 0.00 | 90 | 1011.7 |
| 20260903073035 | 49 | 201 | 4.0 | 7.0 | 0.00 | 2.96 | 0.00 | 91 | 1011.4 |
| 20260903070035 | 49 | 282 | 1.0 | 6.0 | 0.00 | 2.96 | 0.00 | 87 | 1011.5 |
| 20260903064608 | 51 | 211 | 4.0 | 6.0 | 0.00 | 2.96 | 2.96 | 85 | 1011.5 |
| 20260903063034 | 51 | 217 | 4.0 | 7.0 | 0.00 | 2.96 | 2.96 | 87 | 1011.6 |
| 20260903061535 | 50 | 220 | 3.0 | 7.0 | 0.00 | 2.96 | 2.96 | 89 | 1011.6 |
| 20260903060110 | 51 | 265 | 0.0 | 5.0 | 0.00 | 2.96 | 2.96 | 84 | 1011.6 |